Home   Weather   Lausanne   Past weeks

Flag for Switzerland Past Weather in Lausanne, Vaud, Switzerland — Yesterday and Last 2 Weeks

Now
77 °F

Warm.


Feels Like: 79 °F
Forecast: 62 / 80 °F
Wind: 3 mph from Southwest

Location: Aigle

Current Time: May 28, 2017 at 8:33:18 pm

Latest Report: May 28, 2017 at 7:00 pm


Visibility: N/A

Pressure: 30.02 "Hg

Humidity: 64%

Dew Point: 64 °F

Location of LausanneLocation

Past Weather in Lausanne — Graph

°F

Lausanne Temperature Yesterday

Maximum temperature yesterday: 80 °F (at 5:00 pm)
Minimum temperature yesterday: 54 °F (at 6:00 am)
Average temperature yesterday: 68 °F

High & Low Weather Summary for the Past Weeks

 TemperatureHumidityPressure
High81 °F (May 28, 5:00 pm)100% (May 20, 5:00 am)30.41 "Hg (May 20, 5:00 am)
Low40 °F (May 20, 5:00 am)37% (May 22, 7:00 pm)29.79 "Hg (May 18, 7:00 pm)
Average62 °F71%30.12 "Hg
* Reported May 13 7:00 pm — May 28 7:00 pm, Lausanne. Weather by CustomWeather, © 2017

Note: Actual official high and low records may vary slightly from our data, if they occured in-between our weather recording intervals... More about our weather records

Advertising

Lausanne Weather History for the Previous 24 Hours

Scroll right to see more
 ConditionsComfort  
Time TempWeatherWind HumidityBarometerVisibility
7:00 pm
Sun, May 28
77 °FWarm.3 mph64%30.02 "HgN/A
6:00 pm79 °FWarm.3 mph52%30.03 "HgN/A
5:00 pm81 °FPartly sunny.5 mph46%30.04 "Hg12 mi
4:00 pm79 °FWarm.3 mph49%30.04 "HgN/A
3:00 pm78 °FWarm.8 mph50%30.05 "HgN/A
2:00 pm78 °FScattered clouds.8 mph51%30.05 "Hg22 mi
1:00 pm78 °FWarm.8 mph49%30.06 "HgN/A
12:00 pm76 °FMild.10 mph53%30.08 "HgN/A
11:00 am76 °FMild.8 mph55%30.08 "HgN/A
10:00 am72 °FMild.8 mph60%30.09 "HgN/A
9:00 am70 °FMild.3 mph67%30.10 "HgN/A
8:00 am67 °FSunny.5 mph67%30.11 "Hg22 mi
7:00 am59 °FCool.5 mph85%30.13 "HgN/A
6:00 am57 °FCool.3 mph87%30.13 "HgN/A
5:00 am60 °FClear.1 mph82%30.12 "Hg19 mi
4:00 am60 °FCool.2 mph84%30.12 "HgN/A
3:00 am60 °FCool.3 mph84%30.12 "HgN/A
2:00 am61 °FCool.3 mph85%30.12 "HgN/A
1:00 am62 °FCool.No wind80%30.11 "HgN/A
12:00 am64 °FMild.6 mph77%30.10 "HgN/A
11:00 pm
Sat, May 27
64 °FMild.3 mph80%30.10 "HgN/A
10:00 pm65 °FMild.3 mph82%30.08 "HgN/A
9:00 pm72 °FMild.2 mph64%30.05 "HgN/A
8:00 pm77 °FPartly sunny.2 mph49%30.02 "Hg19 mi
Weather by CustomWeather, © 2017

See weather overviewHow to use our weather pages